Dewpoint
60 54 49 56 54 53 38 38 25 34 30 27 23 27 28 29 33 32 32 33 34 37 38 44 48 48 44 48 54 56 56 51 51 43 42 53 63 65 67 68 68 68 68 68 67 67 67 68 68 68 67 67 69 70 70 70 70 70 70 70 70 69 69 69 68 68 68 68 66 65 67 66 66 66 64 64 63 64 64 63 64 64 64 64 64 65 65 65 65 65 65 66 68 68 68 69 69
58 54 46 53 52 35 30 38 31 27 28 24 24 26 26 28 32 30 31 34 36 38 41 52 53 54 54 56 56 54 55 58 58 56 61 63 65 67 68 68 68 68 68 67 66 66 66 68 69 68 67 68 70 69 70 70 70 70 70 70 70 69 69 68 68 67 67 67 66 65 66 65 65 66 66 65 64 65 65 65 65 65 65 65 64 64 64 65 64 64 65 65 68 68 68 68 68
59 53 45 43 38 36 37 34 25 26 26 21 22 20 28 32 31 33 36 38 38 40 47 50 47 48 50 53 52 51 49 59 61 62 61 63 63 66 68 68 68 68 68 66 66 66 66 67 68 68 67 67 68 69 69 69 70 70 70 70 70 69 69 68 67 68 67 66 66 65 64 67 67 66 64 64 63 63 63 63 64 63 64 64 65 65 64 65 65 65 64 64 67 67 68 68 68
57 51 44 40 34 39 29 31 32 27 25 23 18 22 33 35 36 38 40 41 41 38 37 40 42 46 52 52 53 56 55 57 60 61 61 63 63 66 67 68 68 68 67 67 67 66 66 68 69 69 68 67 67 69 69 69 70 70 70 70 70 69 68 67 66 66 66 66 65 65 66 65 63 64 66 65 64 66 65 65 64 64 64 64 64 64 64 65 65 64 64 64 66 67 68 68 67
46 52 44 39 33 31 35 30 28 25 19 19 18 21 33 37 37 38 39 38 36 38 39 40 45 49 54 53 52 51 52 58 60 60 61 63 65 67 67 68 68 67 67 67 67 66 67 68 68 68 68 69 69 69 69 68 69 70 70 70 68 67 67 67 66 66 66 66 65 64 64 64 64 64 65 65 65 66 65 64 63 63 64 65 65 64 64 64 64 64 64 64 65 67 67 67 67
49 44 47 33 25 36 31 27 30 24 20 21 23 30 34 36 37 37 35 34 35 35 37 41 44 46 53 54 55 54 57 56 58 60 62 63 65 67 67 67 67 67 67 67 66 66 66 68 69 69 69 68 69 69 68 68 69 70 70 70 68 67 67 67 66 66 65 65 64 64 63 63 63 63 63 63 65 65 65 65 64 64 64 63 63 63 64 64 65 64 64 65 65 67 67 67 67
42 39 41 35 33 38 28 27 27 27 19 22 28 33 34 34 35 33 32 34 35 37 42 48 53 52 52 53 56 57 57 57 59 60 63 64 66 67 67 67 67 67 67 66 66 66 66 68 69 69 69 68 67 69 68 69 69 69 69 69 68 67 67 66 66 65 64 64 63 63 63 63 62 63 64 65 65 66 66 66 65 64 64 64 64 64 64 64 64 65 65 65 65 66 66 67 67
48 34 38 27 28 27 24 26 27 24 21 28 32 33 32 32 33 32 31 33 34 36 41 47 42 47 48 53 53 57 58 59 60 62 64 65 66 66 67 67 67 66 66 66 66 66 68 67 69 69 68 68 67 67 68 69 69 69 69 69 68 67 66 66 65 64 63 63 64 63 62 63 64 66 67 67 67 66 66 65 65 64 64 64 64 64 65 65 65 66 65 65 66 66 66 66 67
42 29 40 33 27 32 29 24 25 26 21 31 31 34 38 33 31 29 27 29 32 33 34 42 47 47 51 54 53 56 58 60 62 63 64 64 65 66 67 67 66 66 67 67 66 66 67 67 68 68 68 68 67 66 65 69 69 68 69 69 69 68 66 65 64 63 63 63 63 62 61 62 64 65 66 66 66 66 66 65 65 65 64 64 64 64 65 65 65 65 65 65 65 66 66 66 66
34 31 27 29 32 25 27 28 14 16 25 30 30 32 34 31 28 26 28 29 30 30 31 36 44 49 53 54 54 56 57 61 62 62 63 63 65 66 67 67 66 66 67 67 66 66 66 68 67 68 68 68 68 68 67 67 68 68 68 68 68 67 66 65 64 63 63 63 63 62 62 63 63 64 64 66 67 67 66 66 66 66 66 65 65 65 64 64 64 65 65 65 65 66 66 66 66
30 33 39 28 27 24 25 26 25 21 22 21 26 33 32 28 25 27 29 29 33 31 44 52 52 53 54 54 54 57 59 61 61 61 62 63 66 67 67 67 67 67 67 67 66 66 66 66 67 67 67 67 68 68 68 67 67 66 68 68 68 68 67 66 65 65 64 64 63 63 61 64 64 64 64 64 65 66 67 66 66 66 66 65 65 64 64 64 65 65 65 65 66 66 66 66 66
27 28 34 29 27 26 28 24 21 22 22 23 24 24 24 23 27 29 30 29 31 37 42 47 51 54 53 52 54 57 60 60 61 61 61 64 66 67 67 67 67 67 68 67 66 66 66 66 66 67 65 65 67 67 68 68 69 69 67 65 66 67 66 66 66 66 66 65 66 67 65 65 65 65 66 67 66 66 66 66 65 65 64 63 63 63 64 64 65 65 65 65 65 66 66 66 66
31 34 31 25 25 26 30 22 22 23 23 21 21 23 23 23 27 30 30 30 30 27 35 30 54 55 52 53 54 57 59 60 60 61 62 64 66 67 67 67 67 67 67 66 66 66 65 65 66 65 65 64 64 65 67 67 68 69 69 68 67 67 66 66 66 66 66 66 66 67 68 67 66 66 67 67 68 67 65 65 65 65 65 64 64 64 65 64 64 64 64 64 65 65 66 66 66
32 36 30 25 31 28 23 22 24 20 19 23 23 25 25 23 25 30 28 28 27 23 27 47 54 58 55 56 55 55 58 60 60 61 62 65 66 67 67 67 67 67 67 66 66 66 65 65 65 65 64 64 64 64 65 66 67 67 67 67 67 67 67 67 67 67 67 66 66 66 67 67 67 67 67 67 67 67 67 66 66 65 65 64 64 64 64 64 64 64 64 64 64 65 65 65 65
32 40 35 31 29 25 27 18 19 21 17 21 23 25 24 27 21 23 26 26 27 30 35 48 57 48 51 54 54 56 58 60 60 60 63 65 66 67 67 67 67 67 66 66 66 66 65 65 65 64 64 64 64 64 64 65 65 66 66 67 67 67 67 67 66 65 66 66 65 64 65 65 65 65 66 66 65 65 65 66 65 65 65 64 64 64 64 64 64 64 64 64 64 65 65 64 64
39 38 32 28 26 25 27 21 25 21 19 24 24 25 22 23 26 26 27 29 29 37 34 37 41 38 49 54 54 57 59 60 59 61 64 65 66 66 66 66 67 67 66 66 66 66 66 65 65 64 64 64 63 63 63 63 63 63 64 66 66 66 66 66 65 64 63 62 62 62 62 62 61 61 61 62 64 64 64 63 65 65 64 64 64 64 64 64 64 63 63 64 65 65 65 65 65
41 38 27 29 24 25 29 21 22 17 25 25 25 24 22 22 25 23 27 29 34 45 54 55 47 56 55 52 55 58 59 59 59 62 63 64 65 65 66 66 66 66 66 66 66 66 65 65 65 64 64 64 63 63 63 63 63 62 62 63 64 64 64 64 64 61 60 60 59 60 60 60 60 60 60 59 60 60 60 62 65 65 65 64 64 64 64 64 64 64 65 64 65 64 63 62 62
36 29 31 27 29 26 29 21 21 24 20 22 24 24 21 21 23 25 37 44 47 50 53 53 57 57 56 57 58 58 59 59 60 62 62 63 63 64 64 65 65 65 66 66 65 66 66 65 65 64 64 64 63 63 63 63 62 62 61 61 61 62 62 61 61 60 62 58 58 59 58 58 59 59 60 62 58 59 59 60 62 64 65 64 65 64 64 64 64 64 64 64 64 64 60 55 56
33 31 29 25 29 29 29 22 22 22 20 22 24 24 21 20 21 23 32 37 43 47 50 53 55 56 57 57 58 58 59 59 60 62 61 61 62 63 64 64 65 65 65 65 65 65 65 65 65 64 64 64 64 63 64 63 63 62 62 60 60 60 62 61 60 60 58 58 58 58 58 57 58 58 59 59 58 58 59 59 61 63 64 64 64 65 64 64 64 63 63 63 63 62 57 56 56
35 31 27 28 33 29 21 20 21 23 22 23 23 23 22 22 20 24 32 35 39 45 51 51 52 54 56 57 58 58 58 58 59 61 61 61 62 63 63 63 64 65 65 66 66 66 65 65 65 64 64 64 64 64 63 63 63 62 61 61 60 60 60 60 59 59 58 58 59 59 59 57 58 58 62 61 61 57 57 59 60 61 62 61 62 62 63 64 63 63 63 62 58 55 54 55 56
29 28 28 29 32 19 17 21 21 22 23 23 22 22 22 23 21 21 29 30 32 38 51 51 54 55 56 57 58 58 58 58 58 59 60 60 61 62 63 63 63 64 65 65 65 65 65 65 65 65 64 64 64 64 63 63 63 62 62 61 61 60 60 60 60 59 59 59 58 60 58 57 58 57 58 57 57 56 56 56 57 57 57 57 59 58 57 58 57 55 53 54 53 53 54 55 54
31 25 31 30 24 20 18 21 23 24 24 22 21 19 20 22 20 20 27 24 24 28 41 49 56 57 57 57 57 57 57 58 58 58 59 59 60 60 61 61 61 62 63 64 65 65 65 65 65 65 64 64 64 64 63 63 63 62 62 62 61 61 60 60 60 60 60 60 59 58 58 58 58 59 57 56 56 57 56 56 56 56 55 57 57 57 56 56 56 55 53 53 54 53 54 54 53
23 24 23 23 21 17 21 25 22 22 21 20 20 20 19 18 19 20 23 18 18 22 37 48 57 58 58 58 58 57 57 57 58 57 58 58 59 59 60 61 62 62 62 64 64 65 65 65 65 64 64 65 64 64 63 63 63 63 62 62 62 61 60 61 61 60 60 60 59 58 58 58 58 58 57 56 57 57 57 56 56 56 57 56 57 57 57 56 56 55 55 56 53 53 53 52 52
26 23 21 21 23 18 23 21 23 20 20 19 19 20 19 18 16 19 18 18 19 24 33 52 58 58 59 58 58 57 57 58 58 58 58 58 58 59 60 60 61 61 61 63 63 64 64 65 65 64 64 64 64 64 63 63 63 63 62 62 62 61 61 60 61 61 61 60 59 58 58 59 58 57 57 57 57 57 57 57 56 56 57 56 56 56 57 55 55 55 55 54 54 53 52 52 52
25 24 24 22 22 22 22 20 19 20 21 20 20 18 18 17 17 19 17 21 23 35 40 57 58 58 58 58 58 58 58 58 58 58 58 58 58 58 58 59 60 60 61 61 62 63 64 64 64 64 63 64 64 64 62 62 63 63 62 62 61 61 61 60 61 61 60 60 60 59 58 58 57 57 56 57 56 57 57 57 56 57 57 57 56 55 56 55 55 54 54 55 54 55 52 53 52
24 24 23 22 21 22 21 20 20 19 20 19 18 18 20 20 21 18 19 21 26 48 52 58 58 57 57 58 58 58 58 58 58 58 58 58 58 58 57 58 59 59 61 61 62 62 63 64 64 64 63 63 63 62 62 62 62 62 62 62 61 60 61 60 60 60 61 60 60 59 58 58 58 57 57 57 56 57 57 57 57 57 57 58 56 56 55 55 55 53 52 52 52 53 52 53 51
23 24 22 20 21 23 22 19 19 21 21 19 17 19 19 20 19 15 18 21 39 52 55 57 57 57 57 57 58 58 58 58 58 59 58 58 58 58 58 58 58 59 60 60 61 61 62 63 64 63 63 62 62 61 61 61 61 61 62 62 61 60 61 60 60 60 60 60 61 59 59 58 58 57 57 57 57 57 56 57 57 57 57 57 57 56 54 55 55 54 54 53 53 52 53 52 51
23 20 19 19 20 22 22 21 19 19 18 20 18 19 22 20 19 14 17 21 44 52 54 56 56 57 57 57 57 58 58 58 59 59 58 58 58 58 58 58 58 59 60 60 60 61 61 63 63 63 63 63 62 61 61 61 61 61 61 61 61 61 60 60 60 60 59 60 59 59 59 58 57 57 57 57 57 56 55 56 56 55 57 56 56 56 54 54 55 53 52 52 51 51 52 51 50
20 19 18 19 20 20 20 18 19 20 18 20 19 16 17 20 15 16 18 25 41 52 53 54 55 56 56 56 57 57 58 58 59 58 58 58 58 59 58 58 58 58 59 60 60 60 61 62 63 63 63 63 62 62 61 61 61 61 61 61 61 61 60 60 60 60 60 60 59 59 59 58 57 57 56 57 56 56 55 55 55 55 56 55 55 54 53 52 52 51 51 51 51 51 51 52 51
20 19 18 18 18 17 18 21 22 18 18 23 19 12 15 15 17 18 20 29 37 49 51 53 54 55 55 55 56 57 57 57 58 59 59 59 59 58 58 59 59 59 59 59 59 60 61 62 63 63 63 63 63 63 62 61 61 61 61 61 61 61 60 60 59 59 59 59 59 59 59 58 58 57 56 55 55 55 54 54 55 55 55 54 54 53 53 52 52 51 51 51 52 53 53 53 52
17 18 18 18 17 16 18 20 21 16 20 21 14 15 14 13 14 17 23 27 38 44 48 49 50 52 53 54 55 56 57 58 58 59 59 59 59 59 59 59 59 59 59 59 59 60 61 62 63 63 62 63 62 63 62 62 61 61 61 61 61 61 61 60 60 60 59 59 59 59 59 58 57 57 56 56 55 55 55 55 54 56 55 54 54 53 54 52 51 52 51 52 52 52 53 52 52
17 16 16 20 16 17 19 22 19 15 18 18 11 17 11 8 12 18 21 24 31 37 38 40 41 43 46 51 53 54 56 57 58 59 59 59 59 59 59 59 59 59 59 59 59 60 61 61 62 63 62 63 63 63 62 62 62 61 61 60 61 61 61 61 61 61 61 59 59 59 58 58 58 57 57 57 56 55 56 56 55 55 55 55 54 53 53 53 53 53 53 53 52 52 52 52 52
17 17 22 20 17 17 18 20 21 20 17 18 11 11 13 8 14 18 21 22 23 25 29 31 32 35 36 43 49 51 53 54 56 58 58 59 59 59 59 59 59 59 59 59 59 59 60 61 61 62 62 63 63 63 63 63 63 62 61 61 61 61 61 61 62 62 62 61 60 59 59 59 58 59 59 59 59 58 57 57 57 57 56 56 56 55 55 55 54 55 54 53 53 52 52 51 51
17 24 19 24 15 17 15 19 22 27 15 14 17 11 11 11 13 17 21 20 20 20 23 29 29 30 31 36 44 47 50 52 54 56 58 58 59 59 59 58 59 59 59 59 59 59 60 61 61 62 62 63 63 63 63 63 63 62 61 62 60 61 61 61 62 63 62 62 61 60 60 60 60 61 60 59 59 60 60 59 60 60 58 58 58 57 56 56 55 55 54 54 52 51 52 51 51
18 17 19 17 18 16 16 16 16 17 21 13 15 14 12 12 14 17 19 20 19 19 19 23 28 29 29 35 41 46 48 49 51 54 57 57 58 58 59 59 59 59 59 59 59 60 60 61 61 61 62 62 63 63 63 63 63 63 63 62 61 61 61 61 62 63 63 63 62 62 62 61 61 61 60 60 59 59 59 59 59 59 58 58 58 57 57 56 55 54 54 54 52 52 52 52 52
19 22 19 21 17 18 17 18 21 18 17 13 15 13 13 13 13 15 18 19 18 17 17 16 18 27 29 33 39 44 46 47 49 52 55 56 57 58 58 58 59 59 59 59 59 59 60 60 61 61 61 62 62 62 62 63 63 63 63 62 62 62 63 62 63 63 63 63 63 63 62 62 61 61 61 60 60 59 59 57 57 57 57 58 57 56 55 55 55 55 55 54 53 52 51 52 52
19 24 23 17 16 19 20 22 22 21 17 15 14 14 13 13 13 13 17 19 19 18 17 16 15 20 27 30 37 41 44 46 47 50 52 55 56 57 58 58 58 58 59 59 59 59 60 60 60 61 61 61 62 62 62 62 62 63 63 63 62 63 63 63 63 63 63 62 62 62 62 61 61 59 59 59 60 59 59 59 58 58 58 56 56 57 57 56 56 55 54 54 53 54 54 53 53
17 19 21 18 21 15 20 21 22 22 16 15 16 15 16 13 13 13 16 18 17 17 17 16 15 15 23 28 32 38 41 41 39 43 47 50 54 55 56 57 56 57 58 59 59 59 59 60 60 61 61 61 62 62 62 62 62 63 63 63 61 62 62 62 63 63 63 63 62 62 61 61 60 59 59 60 60 60 60 59 59 60 59 58 57 56 56 54 55 54 55 56 55 55 55 54 54
21 17 21 21 20 22 20 20 21 22 17 16 16 15 15 15 14 15 14 17 17 17 18 16 15 15 18 24 29 33 35 37 37 39 45 50 52 54 55 56 57 58 58 58 59 59 59 59 60 60 61 61 61 62 62 62 62 60 61 58 61 58 59 61 61 61 62 62 62 61 61 60 60 60 61 61 61 61 60 60 60 60 59 58 58 57 56 55 56 57 57 57 57 54 54 55 55
17 19 19 18 22 18 18 17 22 20 13 12 19 14 15 15 17 18 17 15 17 19 18 19 18 15 17 19 24 29 31 33 34 36 40 48 51 53 54 55 56 57 57 57 58 59 59 59 60 60 60 61 61 61 61 61 61 59 59 58 59 60 58 56 58 58 59 60 60 60 59 60 60 61 61 61 61 61 61 61 60 59 60 59 59 59 58 57 56 57 57 56 56 55 53 54 52
21 23 22 21 22 18 16 15 20 19 19 19 13 17 13 12 12 13 16 19 18 19 21 20 21 27 26 29 27 28 28 31 34 36 41 47 50 52 54 55 55 56 56 57 58 59 59 59 59 60 60 61 61 60 60 60 59 57 57 56 56 57 56 56 57 57 57 60 60 60 62 61 61 62 62 62 61 62 62 62 61 61 60 60 58 58 59 59 58 58 57 56 56 56 55 53 52
15 25 21 17 20 17 19 19 17 16 16 20 16 11 15 18 13 12 14 16 16 18 18 18 18 20 27 27 27 29 33 33 34 36 40 45 50 52 50 49 52 54 55 56 57 58 58 58 58 59 59 60 60 59 59 60 60 60 58 58 57 54 56 54 55 56 55 58 60 59 61 61 62 62 62 62 62 61 62 62 61 61 60 60 59 59 59 58 57 57 57 57 56 56 56 55 54
15 12 23 17 19 20 20 19 18 12 15 17 12 11 14 15 10 9 11 13 15 17 20 19 19 19 26 28 29 32 32 34 37 38 37 41 43 45 45 45 48 52 53 48 48 54 56 58 58 58 59 59 59 59 59 59 58 59 59 58 57 57 56 53 52 53 56 54 55 56 57 58 59 59 59 59 59 60 61 61 61 60 59 59 58 58 58 58 58 58 57 57 57 55 55 54 54
14 22 27 20 20 22 21 19 19 18 23 22 22 14 10 10 6 14 16 11 11 13 16 19 20 21 25 29 31 35 37 36 36 37 36 38 40 42 44 42 41 44 43 41 44 49 54 56 57 58 58 58 59 58 58 59 59 58 57 56 55 55 55 55 53 54 54 55 56 56 57 57 57 58 58 58 58 58 58 59 59 59 59 59 57 58 58 58 58 58 57 57 56 56 55 55 54
17 28 25 21 20 21 22 20 22 23 18 17 19 23 6 11 11 16 13 11 11 11 14 17 19 21 25 31 33 37 39 39 38 39 39 38 39 39 39 39 40 41 41 41 44 46 50 53 55 56 57 58 58 58 58 57 58 58 57 56 54 53 55 54 53 53 55 55 55 54 55 56 56 57 57 57 57 57 57 57 57 57 57 57 55 57 57 57 57 56 56 55 55 56 56 55 55
27 30 31 30 28 28 24 20 22 18 11 13 16 16 7 11 17 16 11 11 11 11 12 15 18 20 25 30 34 39 40 40 40 40 41 41 41 40 40 41 42 40 40 40 42 45 47 51 53 54 56 56 57 57 57 57 57 56 56 55 55 53 54 53 54 53 53 54 54 53 53 54 55 55 54 53 53 53 53 53 53 54 54 55 54 55 55 55 55 54 54 54 54 54 55 55 54
31 28 25 25 26 25 24 23 20 16 8 15 20 21 8 7 17 9 11 14 9 10 12 14 18 22 27 33 37 40 40 40 40 40 40 40 41 41 42 42 43 45 44 42 43 46 47 51 52 54 52 53 54 56 56 56 56 56 56 55 55 54 54 54 54 53 52 51 53 52 51 52 51 51 51 50 50 50 49 49 49 49 50 50 51 51 50 50 51 51 51 51 51 52 53 53 53
26 25 23 21 22 24 23 22 22 10 10 16 21 20 8 8 13 16 14 12 12 10 10 11 15 20 26 33 38 39 39 39 39 40 40 40 42 42 42 43 44 45 45 42 43 46 46 48 51 51 49 50 52 53 55 54 55 55 55 55 55 55 55 55 54 52 52 52 52 51 49 50 49 49 48 48 47 47 47 47 46 48 48 48 48 48 49 50 52 52 51 50 50 51 51 50 50
24 22 16 17 14 19 9 13 10 9 7 14 15 19 16 13 12 10 12 11 10 10 10 10 16 21 28 35 38 39 39 38 40 39 39 40 41 42 42 43 43 44 45 44 44 45 46 48 50 52 50 49 51 53 54 53 54 54 55 55 54 54 54 54 54 52 52 52 50 48 48 46 44 46 45 46 45 45 46 46 46 46 46 46 45 46 47 47 48 48 49 49 50 50 49 47 46
21 16 16 16 12 6 5 7 7 7 13 16 15 18 12 15 13 16 16 15 14 10 13 18 19 24 31 36 38 39 38 39 39 39 39 39 41 41 42 44 44 44 45 46 46 47 47 48 50 52 51 50 51 53 53 53 53 53 54 54 53 53 52 52 52 52 50 49 48 46 45 45 45 44 44 44 43 43 44 43 43 44 43 43 44 44 44 44 45 46 46 46 46 47 47 46 44
18 22 18 20 17 8 1 5 7 11 15 13 19 9 13 10 11 15 15 17 22 27 31 30 28 31 34 35 36 37 38 37 37 38 40 40 41 42 43 44 43 44 47 48 48 49 50 50 51 52 52 50 51 52 53 53 53 53 53 52 52 51 51 50 49 49 48 47 46 45 44 44 44 43 43 41 41 42 41 42 42 43 43 43 43 43 43 43 42 44 43 43 44 44 43 43 43
25 27 23 20 19 20 12 14 13 9 8 7 9 12 17 11 14 19 20 24 29 31 33 33 34 35 36 38 39 39 39 39 39 39 40 40 40 40 42 43 42 43 46 47 48 50 51 52 52 53 52 51 51 51 52 52 51 50 50 49 49 48 47 48 47 46 45 45 45 44 42 42 42 41 41 41 40 40 40 40 40 41 40 41 41 42 42 42 41 41 41 41 41 41 41 41 40
22 19 19 23 23 17 14 13 15 11 8 6 12 12 16 14 6 14 20 21 25 28 31 33 34 35 36 38 38 38 39 38 38 40 39 39 39 39 40 40 42 43 45 47 48 49 51 52 52 52 51 51 50 50 50 49 48 48 47 48 49 48 48 47 45 43 42 42 42 41 41 40 40 40 40 38 38 38 38 38 38 39 39 39 39 40 40 39 39 39 38 38 39 38 38 37 38
21 16 19 26 25 22 16 8 8 6 7 11 10 8 9 3 10 18 16 18 18 22 27 32 33 34 36 37 37 38 39 38 38 38 38 39 39 39 38 38 39 42 43 44 45 47 50 51 51 51 51 50 49 49 49 49 47 46 46 46 46 46 45 43 42 41 41 41 40 40 39 39 38 38 38 38 37 36 36 36 36 36 36 37 37 37 37 37 37 36 35 35 35 34 35 33 35
24 22 26 17 12 9 14 13 2 1 2 3 7 13 10 8 7 13 8 14 15 18 24 28 32 34 35 36 36 36 36 36 38 38 38 37 38 38 38 38 38 38 39 43 43 45 47 47 48 49 48 47 47 46 45 45 45 44 44 43 42 42 41 40 40 40 39 39 38 38 38 38 37 36 36 36 35 34 33 33 34 33 34 34 34 35 34 34 33 34 33 32 33 32 32 32 33
30 26 19 24 19 21 9 12 13 13 5 -1 11 9 11 16 9 11 10 11 14 16 22 27 31 33 35 35 36 37 37 38 38 38 38 38 37 37 38 38 38 38 38 39 41 43 44 44 45 44 43 43 44 44 43 43 42 41 40 40 39 39 39 39 38 39 38 38 37 37 37 36 36 35 34 33 33 33 32 33 32 32 32 31 32 31 31 31 31 31 31 32 31 31 31 31 32
20 21 18 19 18 21 19 15 14 10 5 5 2 0 15 14 15 11 10 10 13 15 19 26 29 32 34 35 36 38 38 38 38 38 37 37 37 37 37 36 37 36 36 37 39 41 42 42 42 43 43 42 41 40 40 39 39 39 39 38 38 38 37 38 37 37 37 36 36 35 35 35 32 32 31 33 33 32 32 31 31 31 31 31 31 31 30 30 30 30 30 31 31 31 31 31 30
23 21 19 19 18 12 8 14 14 9 6 2 -1 5 16 18 17 12 9 11 15 19 19 22 27 30 33 35 37 38 38 37 38 37 37 37 36 36 35 35 35 37 36 37 38 39 39 39 39 39 39 39 39 39 39 38 38 38 38 37 37 36 37 36 36 35 34 34 33 33 32 31 33 30 31 32 32 30 30 29 31 31 30 30 31 31 30 30 31 31 31 30 30 31 31 31 30